Terug naar catalogus

SL-16 DEB

ActiefLEO
NORAD 22612·DEBRIS·🇷🇺 Russia

Gelanceerd Mar 26, 1993 vanaf Baikonur Cosmodrome

Loading…

Volgende Passages (komende 24 uur)

TLE

VersSource: Space-Track

Epoch: Sep 13, 2026, 22:55 UTC

1 22612U 93016W   26256.95512279  .00004256  00000-0  12367-2 0  9991
2 22612  70.9715  84.3502 0058564 110.3474  50.0723 14.43847726719914

Volg SL-16 DEB in realtime met AllMySat

Download on the App Store